TimeEDT,TemperatureF,Dew PointF,Humidity,Sea Level PressureIn,VisibilityMPH,Wind Direction,Wind SpeedMPH,Gust SpeedMPH,PrecipitationIn,Events,Conditions,WindDirDegrees,DateUTC
12:53 AM,52.0,24.1,34,29.79,10.0,SSE,16.1,-,N/A,,Overcast,160,2013-04-07 04:53:00
1:53 AM,54.0,26.1,34,29.75,10.0,SSE,16.1,-,N/A,,Overcast,160,2013-04-07 05:53:00
2:53 AM,55.9,30.0,37,29.70,10.0,SSE,15.0,25.3,N/A,,Mostly Cloudy,160,2013-04-07 06:53:00
3:53 AM,57.0,33.1,40,29.67,10.0,South,18.4,28.8,0.00,,Overcast,170,2013-04-07 07:53:00
4:53 AM,60.1,36.0,41,29.66,10.0,SSW,28.8,39.1,N/A,,Mostly Cloudy,210,2013-04-07 08:53:00
5:53 AM,57.0,39.9,53,29.65,10.0,South,20.7,27.6,N/A,,Mostly Cloudy,190,2013-04-07 09:53:00
6:53 AM,57.9,39.0,49,29.66,10.0,SSW,25.3,32.2,N/A,,Mostly Cloudy,200,2013-04-07 10:53:00
7:53 AM,57.9,41.0,53,29.68,10.0,SSW,24.2,31.1,N/A,,Overcast,210,2013-04-07 11:53:00
8:53 AM,57.9,44.1,60,29.72,10.0,SW,19.6,27.6,N/A,,Overcast,230,2013-04-07 12:53:00
9:53 AM,55.9,42.1,60,29.74,10.0,WSW,23.0,32.2,N/A,,Mostly Cloudy,250,2013-04-07 13:53:00
10:53 AM,55.9,41.0,57,29.78,10.0,West,19.6,28.8,N/A,,Mostly Cloudy,260,2013-04-07 14:53:00
11:53 AM,54.0,39.0,57,29.82,10.0,WSW,21.9,34.5,N/A,,Overcast,250,2013-04-07 15:53:00
12:53 PM,54.0,37.0,53,29.84,10.0,WSW,24.2,34.5,N/A,,Overcast,250,2013-04-07 16:53:00
1:53 PM,55.0,37.0,51,29.87,10.0,WSW,16.1,25.3,N/A,,Mostly Cloudy,250,2013-04-07 17:53:00
2:53 PM,55.0,36.0,49,29.91,10.0,West,17.3,24.2,N/A,,Mostly Cloudy,260,2013-04-07 18:53:00
3:53 PM,55.0,35.1,47,29.93,10.0,West,17.3,24.2,N/A,,Mostly Cloudy,280,2013-04-07 19:53:00
4:53 PM,55.9,34.0,44,29.94,10.0,West,18.4,26.5,N/A,,Mostly Cloudy,280,2013-04-07 20:53:00
5:53 PM,55.9,33.1,42,29.96,10.0,WNW,9.2,19.6,N/A,,Scattered Clouds,290,2013-04-07 21:53:00
6:53 PM,54.0,32.0,43,29.97,10.0,WNW,9.2,-,N/A,,Scattered Clouds,290,2013-04-07 22:53:00
7:53 PM,51.1,32.0,48,29.99,10.0,WNW,5.8,-,N/A,,Mostly Cloudy,300,2013-04-07 23:53:00
8:53 PM,48.0,32.0,54,30.01,10.0,North,5.8,-,N/A,,Mostly Cloudy,350,2013-04-08 00:53:00
9:53 PM,46.0,32.0,58,30.03,10.0,NNE,6.9,-,N/A,,Scattered Clouds,20,2013-04-08 01:53:00
10:53 PM,44.1,32.0,63,30.03,10.0,North,4.6,-,N/A,,Mostly Cloudy,10,2013-04-08 02:53:00
11:53 PM,44.1,30.9,60,30.05,10.0,NNE,4.6,-,N/A,,Mostly Cloudy,30,2013-04-08 03:53:00